Home > Weather > Selkirk > Past weeks

Flag for Canada Weather for the Past 2 Weeks in Selkirk, Manitoba, Canada

Now
0 °F

Frigid.


Feels Like: -11 °F
Forecast: -12 / -3 °F
Wind: 6 mph from North

Location: Winnipeg The Forks Man

Current Time: Feb 9, 2016 at 11:57:04 AM

Latest Report: Feb 9, 2016 at 11:00 AM


Visibility: N/A

Pressure: 30.43 "Hg

Humidity: 76%

Dew point: -5 °F

Location of SelkirkLocation

Historic Weather in Selkirk — Graph

°F

Selkirk Temperature Yesterday

Maximum temperature yesterday: 12 °F (at 3:00 PM)
Minimum temperature yesterday: 5 °F (at 11:00 PM)
Average temperature yesterday: 9 °F

High & Low Weather Summary for the Past Weeks

 TemperatureHumidityPressure
High38 °F (Jan 27, 4:00 PM)99% (Feb 7, 7:00 AM)30.41 "Hg (Feb 7, 7:00 AM)
Low-1 °F (Feb 9, 10:00 AM)60% (Feb 8, 3:00 PM)29.19 "Hg (Jan 30, 1:00 AM)
Average19 °F79%29.91 "Hg
* Reported Jan 25 10:00 AM — Feb 9 10:00 AM, Selkirk, Weather by CustomWeather, © 2016

Note: Actual official high and low records may vary slightly from our data, if they occured in-between our weather recording intervals... More about our weather records

Advertising

Selkirk Weather History for the Previous 24 Hours

 ConditionsComfort  
Time TempWeatherWind HumidityBarometerVisibility
10:00 AM
Tue, Feb 9
-1 °FFrigid.6 mph78%30.41 "HgN/A
9:00 AM0 °FFrigid.8 mph78%30.41 "HgN/A
8:00 AM2 °FFrigid.6 mph78%30.41 "HgN/A
7:00 AM3 °FFrigid.6 mph77%30.38 "HgN/A
6:00 AM4 °FFrigid.6 mph76%30.36 "HgN/A
5:00 AM4 °FFrigid.6 mph74%30.36 "HgN/A
4:00 AM4 °FFrigid.6 mph74%30.34 "HgN/A
3:00 AM4 °FFrigid.6 mph75%30.34 "HgN/A
2:00 AM4 °FFrigid.6 mph75%30.34 "HgN/A
1:00 AM4 °FFrigid.3 mph77%30.34 "HgN/A
12:00 AM3 °FFrigid.5 mph76%30.33 "HgN/A
11:00 PM
Mon, Feb 8
5 °FFrigid.2 mph73%30.32 "HgN/A
10:00 PM6 °FFrigid.2 mph72%30.33 "HgN/A
9:00 PM7 °FFrigid.3 mph68%30.34 "HgN/A
8:00 PM8 °FFrigid.6 mph68%30.34 "HgN/A
7:00 PM8 °FFrigid.6 mph66%30.32 "HgN/A
6:00 PM11 °FCold.9 mph62%30.33 "HgN/A
5:00 PM10 °FCold.8 mph69%30.33 "HgN/A
4:00 PM11 °FCold.10 mph62%30.29 "HgN/A
3:00 PM12 °FCold.10 mph60%30.28 "HgN/A
2:00 PM12 °FCold.10 mph65%30.29 "HgN/A
1:00 PM11 °FCold.12 mph63%30.28 "HgN/A
12:00 PM11 °FCold.12 mph65%30.28 "HgN/A
11:00 AM10 °FFrigid.7 mph73%30.29 "HgN/A
Weather by CustomWeather, © 2016

See weather overviewHow to use our weather pages